[[{"header":{"parameterUnit":"m.s-1","parameterCategory":1,"la1":30.2991,"la2":30.254,"lo1":-89.0895,"lo2":-89.0444,"dy":0.0017,"dx":0.0017,"nx":28,"ny":28,"refTime":"2023-10-31T09:00:00:Z","depth":0,"parameterNumber":2,"parameterNumberName":"U-component_of_WINDS"},"data":[0,0,0,0,0,0,0,0,0,0,0,0,0,0,0,0,0,0,0,0,0,0,0,0,0,0,0,0,0,0,0,0,0,0,0,0,0,0,0,0,0,0,0,0,0,0,0,0,0,0,0,0,0,0,0,0,0,0,-5.2688,-5.2689,0,-5.2751,-5.2752,-5.2752,-5.2549,-5.2543,-5.2537,-5.2531,-5.2596,-5.2604,-5.2611,0,0,0,0,0,0,0,0,0,0,0,0,0,-5.2391,-5.2397,-5.2688,-5.2689,-5.269,-5.2751,-5.2752,-5.2753,-5.2551,-5.2543,-5.2536,-5.2529,-5.2594,-5.2603,-5.2612,0,0,0,0,0,0,0,0,0,0,0,0,0,-5.2494,-5.2399,-5.2688,-5.2596,-5.2588,-5.2751,-5.2752,-5.2753,-5.2552,-5.2543,-5.2534,-5.2525,-5.2591,-5.2602,-5.2613,-5.2867,0,0,-5.2647,-5.2652,0,0,0,0,0,0,0,0,-5.2488,-5.2505,-5.2609,-5.2603,-5.2594,-5.2633,-5.267,-5.2791,-5.2554,-5.2566,-5.2531,-5.2521,-5.2616,-5.2625,-5.2657,-5.287,-5.2873,-5.2648,-5.2655,-5.266,-5.2663,0,0,0,0,0,0,0,-5.2481,-5.2501,-5.2713,-5.2611,-5.2602,-5.2551,-5.2556,-5.2692,-5.2642,-5.2564,-5.255,-5.256,-5.261,-5.2647,-5.2657,-5.2874,-5.2648,-5.2658,-5.2665,-5.2669,-5.3295,-5.3304,0,0,0,0,0,0,-5.2486,-5.2496,-5.2711,-5.2715,-5.2517,-5.2564,-5.2569,-5.263,-5.264,-5.2633,-5.2568,-5.255,-5.2632,-5.2644,-5.2658,-5.2954,-5.266,-5.267,-5.2677,-5.3285,-5.3297,-5.3308,0,0,0,0,0,0,-5.248,-5.2507,-5.2708,-5.2602,-5.2623,-5.2579,-5.2649,-5.2636,-5.2672,-5.2643,-5.2632,-5.2614,-5.2625,-5.2643,-5.2816,-5.2953,-5.2675,-5.2686,-5.3273,-5.3289,-5.3302,-5.3549,0,0,0,0,0,0,-5.2473,-5.2506,-5.2603,-5.2605,-5.263,-5.2866,-5.2658,-5.2644,-5.2692,-5.2669,-5.2683,-5.2677,-5.2619,-5.28,-5.2827,-5.2964,-5.2694,-5.3261,-5.328,-5.3298,-5.3529,-5.3571,-5.3607,0,0,0,0,0,-5.2463,-5.2671,-5.2609,-5.2636,-5.275,-5.2875,-5.2888,-5.2818,-5.2704,-5.28,-5.278,-5.2676,-5.2934,-5.282,-5.2848,-5.2991,-5.3252,-5.3275,-5.3296,-5.3511,-5.3562,-5.3606,0,0,0,0,0,0,-5.2687,-5.267,-5.2601,-5.2816,-5.2848,-5.284,-5.2959,-5.2875,-5.294,-5.2917,-5.2826,-5.2831,-5.302,-5.3022,-5.2895,-5.3235,-5.3073,-5.3102,-5.3227,-5.3275,-5.3314,-5.3309,-5.2704,0,0,0,0,0,-5.2761,-5.2864,-5.2843,-5.3035,-5.3055,-5.3005,-5.3057,-5.2999,-5.3029,-5.3042,-5.3035,-5.3068,-5.3155,-5.3215,-5.3295,-5.3528,-5.3526,-5.3639,-5.3678,-5.3711,-5.3737,-5.3857,-5.3906,-5.3381,-5.3381,-5.338,0,0,-5.2916,-5.2919,-5.299,-5.308,-5.3098,-5.3206,-5.3018,-5.3141,-5.3219,-5.306,-5.3223,-5.3219,-5.3249,-5.3453,-5.3542,-5.3461,-5.3881,-5.3739,-5.3765,-5.3773,-5.3885,-5.3935,-5.3979,-5.3396,-5.3393,-5.3391,0,0,-5.3253,-5.3267,-5.3427,-5.3448,-5.3478,-5.3443,-5.3482,-5.3486,-5.3477,-5.3639,-5.3521,-5.3613,-5.3767,-5.3792,-5.3826,-5.417,-5.4075,-5.4198,-5.4402,-5.4521,-5.4562,-5.4598,-5.4719,-5.4764,-5.4224,-5.4225,-5.4225,0,-5.3442,-5.36,-5.352,-5.365,-5.3692,-5.3552,-5.3712,-5.3737,-5.3792,-5.3824,-5.3731,-5.3919,-5.393,-5.4136,-5.422,-5.4253,-5.4292,-5.4196,-5.4563,-5.4598,-5.4631,-5.4745,-5.4791,-5.4239,-5.4238,-5.4236,-5.4235,0,-5.3829,-5.3941,-5.4066,-5.4121,-5.4177,-5.4322,-5.4263,-5.4329,-5.4267,-5.4241,-5.4406,-5.4414,-5.4491,-5.4536,-5.4477,-5.4733,-5.4681,-5.4578,-5.4413,-5.4697,-5.4802,-5.4846,-5.426,-5.4255,-5.4251,-5.4247,0,0,-5.431,-5.4317,-5.4365,-5.4387,-5.4408,-5.4492,-5.463,-5.4704,-5.4762,-5.4804,-5.4916,-5.5048,-5.4951,-5.4989,-5.4931,-5.5036,-5.5305,-5.4918,-5.4917,-5.4988,-5.5586,-5.5663,-5.5715,-5.5242,-5.5251,-5.5257,-5.5582,0,-5.464,-5.4875,-5.4806,-5.5042,-5.5142,-5.501,-5.5129,-5.5155,-5.5134,-5.5216,-5.5192,-5.5287,-5.5153,-5.5175,-5.5272,-5.5252,-5.5423,-5.5227,-5.5344,-5.535,-5.534,-5.577,-5.5853,-5.616,-5.5623,-5.563,-5.5635,0,-5.5057,-5.5113,-5.536,-5.5361,-5.5401,-5.551,-5.5571,-5.5651,-5.5677,-5.5654,-5.5696,-5.5615,-5.5749,-5.5584,-5.5766,-5.5634,-5.5677,-5.5675,-5.5685,-5.5692,-5.5509,-5.5788,-5.6256,-5.6302,-5.57,-5.5695,-5.569,0,-5.538,-5.5519,-5.5682,-5.5706,-5.5713,-5.5792,-5.5798,-5.5814,-5.5863,-5.5917,-5.5947,-5.6016,-5.6054,-5.6109,-5.6049,-5.5935,-5.6239,-5.607,-5.6223,-5.6225,-5.6292,-5.6289,-5.6773,-5.6324,-5.6323,-5.6322,-5.6321,0,-5.5755,-5.591,-5.5828,-5.5929,-5.6098,-5.6016,-5.6186,-5.6177,-5.6192,-5.6288,-5.6178,-5.6271,-5.6186,-5.627,-5.6224,-5.638,-5.6399,-5.6383,-5.6369,-5.6392,-5.6394,-5.6419,-5.6396,-5.6334,-5.6331,-5.6329,-5.6327,0,-5.6145,-5.6096,-5.6266,-5.6258,-5.6259,-5.6384,-5.6377,-5.6469,-5.644,-5.6563,-5.6587,-5.6541,-5.6634,-5.658,-5.6676,-5.6644,-5.6847,-5.6804,-5.6839,-5.6827,-5.6982,-5.6967,-5.7497,-5.7562,-5.7073,-5.7078,-5.7082,0,-5.6387,-5.6503,-5.6507,-5.6563,-5.6576,-5.6669,-5.6717,-5.6641,-5.6695,-5.6732,-5.682,-5.6903,-5.6966,-5.7121,-5.7096,-5.7168,-5.7125,-5.7306,-5.7135,-5.7154,-5.7125,-5.7119,-5.7129,-5.734,-5.7346,-5.7351,-5.7354,0,-5.682,-5.679,-5.6864,-5.693,-5.699,-5.7039,-5.7078,-5.713,-5.7053,-5.712,-5.7214,-5.7263,-5.7359,-5.7443,-5.7504,-5.7509,-5.742,-5.7408,-5.7447,-5.7472,-5.7486,-5.7478,-5.6931,-5.7396,-5.7392,-5.7389,-5.7387,-5.7385,-5.7142,-5.7238,-5.7255,-5.734,-5.7361,-5.74,-5.7485,-5.7466,-5.7543,-5.7615,-5.7565,-5.7676,-5.7695,-5.7767,-5.7784,-5.7868,-5.7795,-5.7852,-5.7866,-5.7881,-5.7901,-5.7474,-5.7879,-5.7878,-5.7877,-5.7876,-5.7875,0,-5.7567,-5.7571,-5.7651,-5.7708,-5.7775,-5.7684,-5.7722,-5.7784,-5.7882,-5.7908,-5.7972,-5.8078,-5.8159,-5.814,-5.8211,-5.8282,-5.8243,-5.8304,-5.8297,-5.8299,-5.7964,-5.7922,-5.8334,-5.8334,-5.8334,-5.8334,-5.8334,-5.8334,-5.7797,-5.7953,-5.7925,-5.809,-5.8092,-5.8199,-5.8228,-5.8262,-5.8282,-5.8406,-5.8472,-5.8458,-5.8466,-5.8537,-5.8606,-5.8598,-5.8628,-5.8704,-5.8682,-5.8368,-5.8323,-5.828,-5.824,-5.8712,-5.8713,-5.9009,-5.9012,-5.9014]},{"header":{"parameterUnit":"m.s-1","parameterCategory":1,"la1":30.2991,"la2":30.254,"lo1":-89.0895,"lo2":-89.0444,"dy":0.0017,"dx":0.0017,"nx":28,"ny":28,"refTime":"2023-10-31T09:00:00:Z","depth":0,"parameterNumber":3,"parameterNumberName":"V-component_of_WINDS"},"data":[0,0,0,0,0,0,0,0,0,0,0,0,0,0,0,0,0,0,0,0,0,0,0,0,0,0,0,0,0,0,0,0,0,0,0,0,0,0,0,0,0,0,0,0,0,0,0,0,0,0,0,0,0,0,0,0,0,0,-4.8479,-4.848,0,-4.8537,-4.8538,-4.8539,-4.8479,-4.8477,-4.8475,-4.8473,-4.8529,-4.8533,-4.8536,0,0,0,0,0,0,0,0,0,0,0,0,0,-4.8311,-4.8314,-4.8479,-4.848,-4.8481,-4.8537,-4.8538,-4.8539,-4.848,-4.8477,-4.8474,-4.8471,-4.8528,-4.8532,-4.8537,0,0,0,0,0,0,0,0,0,0,0,0,0,-4.8378,-4.8315,-4.8479,-4.8458,-4.8457,-4.8537,-4.8538,-4.8539,-4.848,-4.8477,-4.8473,-4.847,-4.8527,-4.8532,-4.8537,-4.8641,0,0,-4.8554,-4.8556,0,0,0,0,0,0,0,0,-4.8374,-4.8384,-4.846,-4.846,-4.8458,-4.8498,-4.8499,-4.8573,-4.8481,-4.8471,-4.8472,-4.8468,-4.8521,-4.8527,-4.8545,-4.8643,-4.8646,-4.8555,-4.8558,-4.856,-4.8562,0,0,0,0,0,0,0,-4.837,-4.8381,-4.8502,-4.8461,-4.846,-4.8444,-4.8449,-4.8513,-4.8515,-4.8472,-4.8468,-4.8476,-4.852,-4.854,-4.8546,-4.8646,-4.8554,-4.8559,-4.8563,-4.8565,-4.8827,-4.883,0,0,0,0,0,0,-4.8368,-4.8378,-4.85,-4.8504,-4.8407,-4.845,-4.8456,-4.8488,-4.8514,-4.8515,-4.8478,-4.8473,-4.8533,-4.854,-4.8548,-4.8667,-4.856,-4.8565,-4.8569,-4.8823,-4.8828,-4.8832,0,0,0,0,0,0,-4.8365,-4.8379,-4.8498,-4.844,-4.8454,-4.8456,-4.8493,-4.8491,-4.8512,-4.8519,-4.8519,-4.8499,-4.853,-4.854,-4.8617,-4.8669,-4.8568,-4.8573,-4.8819,-4.8825,-4.883,-4.8909,0,0,0,0,0,0,-4.836,-4.8379,-4.8419,-4.8441,-4.8457,-4.8568,-4.8496,-4.8495,-4.8522,-4.8514,-4.8538,-4.8539,-4.8528,-4.8609,-4.8623,-4.8674,-4.8577,-4.8814,-4.8821,-4.8828,-4.8902,-4.8916,-4.8929,0,0,0,0,0,-4.8354,-4.844,-4.8422,-4.8437,-4.8508,-4.8571,-4.858,-4.8567,-4.8526,-4.8566,-4.857,-4.8538,-4.8661,-4.8618,-4.8632,-4.8686,-4.8811,-4.8819,-4.8827,-4.8895,-4.8914,-4.8929,0,0,0,0,0,0,-4.8424,-4.8442,-4.8423,-4.8518,-4.8543,-4.8561,-4.8611,-4.8587,-4.8623,-4.8615,-4.8596,-4.8602,-4.8683,-4.8692,-4.8644,-4.8785,-4.8729,-4.8741,-4.8776,-4.8793,-4.8807,-4.8801,-4.8582,0,0,0,0,0,-4.8451,-4.8501,-4.8514,-4.8597,-4.8611,-4.8609,-4.8636,-4.8623,-4.8648,-4.8658,-4.8668,-4.8693,-4.8736,-4.8765,-4.8806,-4.8903,-4.8905,-4.8947,-4.8961,-4.8972,-4.8982,-4.9029,-4.9047,-4.8859,-4.8859,-4.8859,0,0,-4.8506,-4.8522,-4.8555,-4.8611,-4.8629,-4.868,-4.8618,-4.8676,-4.8712,-4.8667,-4.8739,-4.8747,-4.8773,-4.8859,-4.8898,-4.887,-4.9034,-4.8983,-4.8992,-4.8995,-4.904,-4.9058,-4.9073,-4.8864,-4.8863,-4.8863,0,0,-4.8632,-4.8651,-4.872,-4.8739,-4.8767,-4.8764,-4.8781,-4.8802,-4.8805,-4.8878,-4.8843,-4.8886,-4.8963,-4.8981,-4.9001,-4.9131,-4.9101,-4.9144,-4.9215,-4.9262,-4.9277,-4.929,-4.9333,-4.9349,-4.9154,-4.9155,-4.9155,0,-4.8696,-4.8773,-4.8758,-4.8817,-4.8841,-4.8802,-4.887,-4.8889,-4.8929,-4.8945,-4.8914,-4.9007,-4.9022,-4.911,-4.9141,-4.916,-4.9175,-4.9141,-4.9276,-4.9289,-4.9301,-4.9342,-4.9358,-4.9159,-4.9159,-4.9158,-4.9158,0,-4.8849,-4.8903,-4.8955,-4.8994,-4.9024,-4.9087,-4.908,-4.9111,-4.9096,-4.9096,-4.9168,-4.9184,-4.9226,-4.9246,-4.9232,-4.9332,-4.9313,-4.928,-4.9222,-4.9324,-4.9362,-4.9378,-4.9166,-4.9165,-4.9163,-4.9162,0,0,-4.9022,-4.905,-4.9069,-4.9084,-4.9111,-4.9151,-4.9211,-4.9252,-4.9278,-4.9306,-4.9354,-4.9419,-4.9387,-4.9409,-4.9396,-4.9438,-4.9535,-4.9398,-4.9398,-4.942,-4.9641,-4.9664,-4.9683,-4.9516,-4.9519,-4.9522,-4.9638,0,-4.9146,-4.9251,-4.9237,-4.9337,-4.9384,-4.9346,-4.9398,-4.9419,-4.942,-4.9458,-4.9459,-4.9504,-4.946,-4.9473,-4.9513,-4.9515,-4.9578,-4.9506,-4.9558,-4.956,-4.955,-4.9703,-4.9729,-4.9838,-4.9653,-4.9656,-4.9657,0,-4.9305,-4.9338,-4.9442,-4.9458,-4.9477,-4.9524,-4.9558,-4.9597,-4.9618,-4.9616,-4.964,-4.9618,-4.9675,-4.9619,-4.9696,-4.9647,-4.9667,-4.9671,-4.9675,-4.9677,-4.9613,-4.9707,-4.9873,-4.9888,-4.9681,-4.9679,-4.9678,0,-4.9416,-4.9487,-4.9557,-4.9572,-4.9593,-4.9626,-4.9637,-4.9655,-4.9679,-4.9709,-4.9724,-4.976,-4.978,-4.9807,-4.9795,-4.9756,-4.9873,-4.9816,-4.987,-4.9871,-4.9896,-4.9894,-5.0064,-4.9913,-4.9913,-4.9913,-4.9912,0,-4.9555,-4.9619,-4.9606,-4.965,-4.9719,-4.9703,-4.9772,-4.9777,-4.9793,-4.9835,-4.9805,-4.9844,-4.9827,-4.9865,-4.9856,-4.9919,-4.9929,-4.9926,-4.9923,-4.9928,-4.9928,-4.9939,-4.993,-4.9917,-4.9916,-4.9915,-4.9914,0,-4.969,-4.9685,-4.9758,-4.9772,-4.9776,-4.9827,-4.9838,-4.9877,-4.9875,-4.9928,-4.9939,-4.9936,-4.9978,-4.9969,-5.0017,-5.001,-5.0088,-5.0077,-5.0081,-5.0077,-5.0131,-5.0125,-5.0313,-5.0335,-5.0172,-5.0174,-5.0175,0,-4.9778,-4.9826,-4.9844,-4.987,-4.9882,-4.9925,-4.9949,-4.9933,-4.9959,-4.9986,-5.0021,-5.0061,-5.0091,-5.0161,-5.0162,-5.0196,-5.0183,-5.0247,-5.0188,-5.0191,-5.0181,-5.0177,-5.018,-5.0258,-5.026,-5.0261,-5.0263,0,-4.9933,-4.9927,-4.9963,-4.9998,-5.0027,-5.0054,-5.0078,-5.01,-5.0086,-5.0117,-5.0159,-5.0183,-5.023,-5.0269,-5.0301,-5.0309,-5.0283,-5.0281,-5.0295,-5.0299,-5.0299,-5.0296,-5.011,-5.0276,-5.0275,-5.0274,-5.0273,-5.0273,-5.0045,-5.0084,-5.0102,-5.0143,-5.0159,-5.0181,-5.0217,-5.0219,-5.0255,-5.0292,-5.028,-5.0328,-5.0345,-5.0385,-5.0397,-5.0433,-5.0409,-5.043,-5.0435,-5.0439,-5.0444,-5.0295,-5.0439,-5.0439,-5.0438,-5.0438,-5.0438,0,-5.0195,-5.0204,-5.0242,-5.0275,-5.0306,-5.0279,-5.0303,-5.033,-5.0373,-5.0391,-5.0422,-5.0469,-5.0506,-5.0509,-5.0543,-5.0571,-5.0559,-5.058,-5.0577,-5.0578,-5.0466,-5.0449,-5.0589,-5.0589,-5.0589,-5.0589,-5.0589,-5.0589,-5.0277,-5.0341,-5.0337,-5.0408,-5.0416,-5.0463,-5.0479,-5.0498,-5.0512,-5.0566,-5.0596,-5.0598,-5.061,-5.0644,-5.0676,-5.0675,-5.0688,-5.0713,-5.0708,-5.0602,-5.0587,-5.0572,-5.0556,-5.0716,-5.0717,-5.0817,-5.0818,-5.0819]}]]